Torna al catalogo

COSMOS 2150

AttivoNavigazioneLEO
NORAD 21418·PAYLOAD·🇷🇺 Russia

Lanciato Jun 11, 1991 da Plesetsk Cosmodrome

Loading…

Prossimi Passaggi (prossime 24 ore)

TLE

AggiornatoSource: Space-Track

Epoca: Sep 14, 2026, 13:38 UTC

1 21418U 91041A   26257.56837484  .00000073  00000-0  36370-4 0  9991
2 21418  74.0367 309.2105 0015826  74.9581 285.3320 14.32666345841782

Traccia COSMOS 2150 in tempo reale con AllMySat

Download on the App Store